Home   Weather   37°13'N, 3°39'W   Past weeks
Flag for Spain

Past Weather in 37°13'N, 3°39'W, Spain — Yesterday and Last 2 Weeks

Now
68 °F

Passing clouds.


Feels Like: 68 °F
Forecast: 87 / 48 °F
Wind: 3 mph from South

Location: Granada / Aeropuerto

Current Time: Jun 17, 2019 at 11:37:32 pm

Latest Report: Jun 17, 2019 at 11:00 pm


Visibility: N/A

Pressure: 30.04 "Hg

Humidity: 26%

Dew Point: 32 °F

Location of 37°13'N, 3°39'WLocation

Past Weather in 37°13'N, 3°39'W — Graph

°F

37°13'N, 3°39'W Temperature Yesterday

Maximum temperature yesterday: 88 °F (at 6:00 pm)
Minimum temperature yesterday: 50 °F (at 7:00 am)
Average temperature yesterday: 71 °F

High & Low Weather Summary for the Past Weeks

 TemperatureHumidityPressure
High95 °F (Jun 3, 4:00 pm)88% (Jun 13, 6:00 am)30.12 "Hg (Jun 13, 6:00 am)
Low46 °F (Jun 6, 6:00 am)8% (Jun 6, 5:30 pm)29.80 "Hg (Jun 13, 4:00 pm)
Average70 °F41%30.00 "Hg
* Reported Jun 2 10:00 pm — Jun 17 10:30 pm, 37°13'N, 3°39'W. Weather by CustomWeather, © 2019

Note: Actual official high and low records may vary slightly from our data, if they occured in-between our weather recording intervals... More about our weather records

Advertising

37°13'N, 3°39'W Weather History for the Previous 24 Hours

Scroll right to see more
 ConditionsComfort  
Time TempWeatherWind HumidityBarometerVisibility
10:30 pm
Mon, Jun 17
73 °FPassing clouds.3 mph27%30.04 "HgN/A
10:00 pm77 °FPassing clouds.3 mph17%30.01 "HgN/A
9:30 pm81 °FPassing clouds.5 mph15%30.01 "HgN/A
9:00 pm82 °FPassing clouds.10 mph14%30.01 "HgN/A
8:30 pm84 °FSunny.12 mph13%30.01 "Hg10 mi
8:00 pm86 °FPassing clouds.10 mph14%29.98 "HgN/A
7:30 pm88 °FPassing clouds.13 mph13%29.98 "HgN/A
7:00 pm90 °FPassing clouds.10 mph13%29.98 "HgN/A
6:30 pm90 °FPassing clouds.9 mph13%29.98 "HgN/A
6:00 pm90 °FPassing clouds.10 mph14%29.98 "HgN/A
5:30 pm91 °FPassing clouds.8 mph13%29.98 "HgN/A
5:00 pm91 °FPassing clouds.5 mph17%29.98 "HgN/A
4:30 pm90 °FPassing clouds.9 mph18%30.01 "HgN/A
4:00 pm90 °FPassing clouds.8 mph18%30.01 "HgN/A
3:30 pm90 °FPassing clouds.5 mph18%30.01 "HgN/A
3:00 pm88 °FPassing clouds.3 mph19%30.04 "HgN/A
2:30 pm86 °FPassing clouds.3 mph22%30.04 "HgN/A
2:00 pm84 °FPassing clouds.5 mph22%30.04 "HgN/A
1:30 pm84 °FPassing clouds.6 mph22%30.07 "HgN/A
1:00 pm82 °FSunny.2 mph21%30.07 "Hg10 mi
12:30 pm81 °FSunny.1 mph26%30.07 "Hg10 mi
12:00 pm77 °FSunny.1 mph30%30.09 "Hg10 mi
11:30 am75 °FSunny.1 mph31%30.09 "Hg10 mi
11:00 am73 °FSunny.1 mph33%30.09 "Hg10 mi
10:30 am72 °FSunny.No wind36%30.09 "Hg10 mi
10:00 am70 °FSunny.No wind40%30.09 "Hg10 mi
9:30 am66 °FSunny.No wind43%30.12 "Hg10 mi
9:00 am61 °FSunny.No wind52%30.12 "Hg10 mi
8:30 am57 °FSunny.No wind59%30.12 "Hg10 mi
8:00 am55 °FSunny.2 mph59%30.12 "Hg10 mi
7:30 am52 °FSunny.3 mph62%30.12 "Hg10 mi
7:00 am52 °FSunny.No wind62%30.09 "Hg10 mi
6:30 am52 °FPassing clouds.3 mph67%30.09 "HgN/A
6:00 am54 °FClear.2 mph63%30.09 "Hg10 mi
5:30 am54 °FCool.1 mph58%30.09 "HgN/A
5:00 am54 °FCool.No wind58%30.09 "HgN/A
4:30 am54 °FCool.No wind58%30.09 "HgN/A
4:00 am55 °FRefreshingly cool.No wind55%30.12 "HgN/A
3:30 am55 °FRefreshingly cool.1 mph55%30.12 "HgN/A
3:00 am57 °FRefreshingly cool.No wind51%30.12 "HgN/A
2:30 am59 °FRefreshingly cool.No wind48%30.12 "HgN/A
2:00 am59 °FRefreshingly cool.1 mph48%30.12 "HgN/A
1:30 am61 °FRefreshingly cool.No wind48%30.12 "HgN/A
1:00 am63 °FMild.3 mph45%30.12 "HgN/A
12:30 am64 °FMild.No wind46%30.12 "HgN/A
12:00 am70 °FMild.1 mph35%30.12 "HgN/A
11:30 pm
Sun, Jun 16
70 °FClear.No wind35%30.12 "Hg10 mi
11:00 pm70 °FClear.1 mph38%30.12 "Hg10 mi
Weather by CustomWeather, © 2019

See weather overview